Location: Unspecified
(0.0000°N, 0.0000°E)
Time: 11:09:47
(UTC+00:00)

ZACube-1 - Visible Passes

Search period start: 15 December 2019 00:00
Search period end: 25 December 2019 00:00
Orbit: 584 x 667 km, 97.6° (Epoch: 14 December)

Date Brightness Start Highest point End Pass type
(mag) Time Alt. Az. Time Alt. Az. Time Alt. Az.
17 Dec ? 18:24:31 10° SSW 18:28:33 31° WSW 18:32:33 10° NW visible
18 Dec ? 04:59:39 10° ENE 05:01:50 14° ESE 05:04:03 10° SE visible
18 Dec ? 18:44:29 10° SW 18:47:28 17° WSW 18:50:26 10° WNW visible
19 Dec ? 05:17:17 10° NE 05:20:45 26° ESE 05:24:15 10° SSE visible
22 Dec ? 18:23:11 10° SSW 18:27:13 31° WSW 18:31:10 10° NW visible
23 Dec ? 04:58:15 10° ENE 05:00:26 14° ESE 05:02:39 10° SE visible
23 Dec ? 18:43:09 10° SW 18:46:07 17° WSW 18:49:04 10° WNW visible
24 Dec ? 05:15:51 10° NE 05:19:20 26° ESE 05:22:52 10° SSE visible
